DW8306 Weather Reports


time (UTC)temp
F
wind
direction
speed
knots
gust
knots
rain 1hr
in
rain 24hr
in
rain mn
in
humidity
%
barometer
mb
20260509221522 81 61 0.0 0.0 0.00 1.20 1.20 76 1008.2
20260509220118 82 85 0.0 0.0 0.00 1.20 1.20 77 1008.1
20260509214632 81 4 0.0 0.0 0.00 1.20 1.20 75 1008.1
20260509213026 80 71 0.0 0.0 0.00 1.20 1.20 81 1008.4
20260509211620 79 75 0.0 0.0 0.00 1.20 1.20 80 1008.4
20260509210007 79 86 0.0 0.0 0.00 1.20 1.20 79 1008.7
20260509204512 80 70 0.0 0.0 0.00 1.20 1.20 78 1008.8
20260509203118 79 101 0.0 0.0 0.00 1.20 1.20 82 1009.0
20260509201516 79 114 0.0 0.0 0.00 1.20 1.20 81 1009.1
20260509200105 79 110 0.0 0.0 0.00 1.20 1.20 80 1009.2
20260509194514 78 71 0.0 0.0 0.00 1.20 1.20 84 1009.3
20260509193026 78 52 0.0 0.0 0.00 1.20 1.20 81 1009.4
20260509191506 78 354 0.0 0.0 0.00 1.20 1.20 83 1009.6
20260509190004 76 266 0.0 0.0 0.00 1.20 1.20 83 1009.8
20260509184616 75 96 0.0 0.0 0.00 1.20 1.20 84 1009.8
20260509183012 74 85 0.0 0.0 0.00 1.20 1.20 88 1010.3
20260509181621 74 68 0.0 0.0 0.00 1.20 1.20 87 1010.3
20260509180018 74 68 0.0 0.0 0.00 1.20 1.20 88 1010.3
20260509174506 74 68 0.0 0.0 0.00 1.20 1.20 88 1010.6
20260509173020 73 68 0.0 0.0 0.00 1.20 1.20 90 1010.7
20260509170023 70 58 0.0 0.0 0.00 1.20 1.20 95 1010.9
20260509164516 70 58 0.0 0.0 0.00 1.20 1.20 95 1010.9
20260509163116 69 58 0.0 0.0 0.00 1.20 1.20 95 1010.8
20260509161515 69 47 0.0 0.0 0.00 1.20 1.20 95 1010.8
20260509160015 69 93 0.0 0.0 0.00 1.20 1.20 96 1010.6
20260509154621 68 93 0.0 0.0 0.00 1.20 1.20 96 1010.5
20260509151505 68 93 0.0 0.0 0.00 1.20 1.20 96 1010.0
20260509150108 68 72 0.0 0.0 0.00 1.20 1.20 96 1010.3
20260509144512 68 72 0.0 0.0 0.00 1.20 1.20 96 1010.5
20260509143011 67 60 0.0 0.0 0.00 1.20 1.20 96 1010.5
20260509141504 67 60 0.0 0.0 0.00 1.20 1.20 96 1010.7
20260509140014 66 60 0.0 0.0 0.00 1.20 1.20 96 1010.7
20260509134519 66 60 0.0 0.0 0.00 1.20 1.20 96 1010.9
20260509133105 66 60 0.0 0.0 0.00 1.20 1.20 96 1010.7
20260509131511 66 69 0.0 0.0 0.00 1.20 1.20 96 1010.4
20260509130027 66 53 0.0 0.0 0.00 1.20 1.20 96 1010.4
20260509124520 65 4 0.0 0.0 0.00 1.20 1.20 96 1010.4
20260509123019 65 4 0.0 0.0 0.00 1.20 1.20 96 1010.1
20260509121525 65 4 0.0 0.0 0.00 1.20 1.20 96 1010.3
20260509120005 65 4 0.0 0.0 0.00 1.20 1.20 96 1010.2
20260509114515 65 4 0.0 0.0 0.00 1.20 1.20 96 1010.0
20260509113019 65 41 0.0 0.0 0.00 1.20 1.20 96 1010.1
20260509111513 65 41 0.0 0.0 0.00 1.20 1.20 95 1009.8
20260509110120 65 18 0.0 0.0 0.00 1.20 1.20 96 1009.5
20260509104509 64 18 0.0 0.0 0.00 1.20 1.20 96 1009.5
20260509103011 64 18 0.0 0.0 0.00 1.20 1.20 95 1009.3
20260509101619 64 18 0.0 0.0 0.00 1.20 1.20 95 1009.2
20260509100009 64 18 0.0 0.0 0.00 1.20 1.20 95 1009.3
20260509094515 64 18 0.0 0.0 0.00 1.20 1.20 95 1009.4
20260509093010 64 25 0.0 0.9 0.00 1.20 1.20 95 1009.2
20260509091511 64 4 0.0 1.7 0.00 1.20 1.20 95 1009.2
20260509090020 64 198 0.0 0.0 0.00 1.20 1.20 95 1009.4
20260509084608 64 198 0.0 0.9 0.01 1.20 1.20 95 1009.0
20260509083031 64 198 0.0 0.0 0.02 1.20 1.20 94 1009.2
20260509081513 64 198 0.0 0.0 0.05 1.20 1.20 94 1009.9
20260509080120 64 91 0.0 0.0 0.34 1.20 1.20 94 1009.1
20260509074506 64 91 0.0 0.9 0.81 1.19 1.19 94 1008.4
20260509073007 64 228 0.0 4.3 1.17 1.17 1.17 93 1008.3
20260509070004 66 258 0.0 0.9 0.77 0.77 0.77 92 1011.7
20260509064605 68 325 1.7 16.5 0.42 0.42 0.42 89 1011.5
20260509063013 69 29 0.0 0.0 0.00 0.00 0.00 90 1010.4
20260509061505 69 29 0.0 0.0 0.00 0.00 0.00 90 1010.5
20260509060040 69 29 0.0 0.0 0.00 0.00 0.00 89 1010.1
20260509054505 69 45 0.0 0.0 0.00 0.00 0.00 89 1010.5
20260509051603 69 45 0.0 0.0 0.00 0.00 0.00 89 1010.0
20260509050018 69 45 0.0 0.0 0.00 0.00 0.00 89 1010.5
20260509044504 69 45 0.0 0.0 0.00 0.00 0.00 88 1010.6
20260509041521 69 345 0.0 0.0 0.00 0.00 0.00 88 1010.9
20260509040105 70 43 0.0 0.0 0.00 0.00 0.00 88 1010.7
20260509034508 70 56 0.0 0.0 0.00 0.00 0.00 87 1010.6
20260509033004 70 354 0.0 0.0 0.00 0.00 0.00 87 1010.3
20260509031509 70 354 0.0 0.0 0.00 0.00 0.00 87 1010.3
20260509030028 70 354 0.0 0.0 0.00 0.00 0.00 87 1010.2
20260509024516 70 4 0.0 0.0 0.00 0.00 0.00 87 1009.9
20260509023014 70 54 0.0 0.9 0.00 0.00 0.00 87 1009.4
20260509020018 70 277 0.0 0.9 0.00 0.00 0.00 86 1008.9
20260509014519 70 265 0.0 0.9 0.00 0.00 0.00 86 1008.7
20260509013107 70 265 0.0 0.9 0.00 0.00 0.00 85 1008.7
20260509011506 71 263 0.0 1.7 0.00 0.00 0.00 82 1008.4
20260509010007 71 242 0.0 1.7 0.00 0.00 0.00 80 1008.1
20260509004618 72 9 0.0 1.7 0.00 0.00 0.00 79 1007.7
20260509003018 74 194 0.0 3.5 0.00 0.00 0.00 76 1007.6
20260509001622 75 295 0.0 4.3 0.00 0.00 0.00 75 1008.7
20260509000120 75 315 0.0 0.9 0.00 0.00 0.00 74 1008.7
20260508233008 75 212 0.0 0.0 0.00 0.00 0.00 68 1009.8
20260508231613 76 212 0.0 0.0 0.00 0.00 0.00 66 1010.0
20260508230018 77 212 0.0 0.9 0.00 0.00 0.00 65 1009.6
20260508224515 78 91 0.9 4.3 0.00 0.00 0.00 67 1009.6
20260508223009 78 254 0.0 1.7 0.00 0.00 0.00 66 1009.3